DateTimeUTC,F1_A11,F1_S11,BsB_S11,BsG_S11,BsR_S11,BbsB_S11,BbsG_S11,BbsR_S11,BaB_A11,BaG_A11,BaR_A11,Tu_S11,T_S11,Uu_S11,U_S11,P_S11,T1_A11
2021-03-31T03:00:00Z,00000200,21000000,,,,,,,-000.04,-000.23,0000.22,16.6,23.8,00.3,00.2,0649.1,30.9
2021-03-31T03:01:00Z,00000200,21000000,,,,,,,-000.13,0000.06,-000.18,16.6,23.8,,00.0,0649.2,30.9
2021-03-31T03:02:00Z,00000200,21000000,,,,,,,-000.46,-000.47,-000.12,16.6,23.8,,00.0,0649.2,30.9
2021-03-31T03:03:00Z,00000200,61000000,,,,,,,0000.80,0000.37,0000.37,16.6,23.8,,00.0,0649.2,30.9
2021-03-31T03:04:00Z,00000200,41000000,0001.98,0000.58,0000.27,0000.56,0000.23,0000.26,-000.22,0000.40,0000.02,16.6,23.6,00.4,00.3,0650.1,30.9
2021-03-31T03:05:00Z,00000200,01000000,0001.30,0000.75,0000.68,0000.54,0000.12,0000.30,0000.74,0000.30,0000.04,16.6,23.5,00.4,00.2,0650.3,30.9
2021-03-31T03:06:00Z,00000200,01000000,0001.05,0000.59,0000.26,0000.03,0000.19,0000.17,0000.08,0000.56,0000.43,16.6,23.5,00.4,00.3,0650.2,30.9
2021-03-31T03:07:00Z,00000200,01000000,0001.48,0000.86,0000.53,0000.31,-000.07,0000.37,0000.48,0000.05,0000.26,16.6,23.5,00.4,00.3,0650.3,30.9
2021-03-31T03:08:00Z,00000200,01000000,0001.66,0000.39,0000.24,0000.24,0000.02,0000.28,0000.05,0000.40,0000.09,16.6,23.4,00.5,00.3,0650.3,30.9
2021-03-31T03:09:00Z,00000200,01000000,0001.84,0000.66,0000.23,0000.22,0000.16,0000.11,0000.61,0000.36,0000.44,16.5,23.4,00.4,00.3,0650.1,30.9
2021-03-31T03:10:00Z,00000200,01000000,0001.89,0000.75,0000.34,0000.10,0000.11,0000.36,0000.42,0000.09,0000.43,16.5,23.4,00.4,00.3,0650.1,30.8
2021-03-31T03:11:00Z,00000200,01000000,0001.39,0000.61,0000.30,0000.70,0000.13,0000.26,0000.26,0000.40,-000.19,16.6,23.4,00.6,00.4,0650.3,30.8
2021-03-31T03:12:00Z,00000200,01000000,0001.77,0000.62,0000.20,0000.54,0000.10,-000.06,0000.86,0000.30,0000.64,16.6,23.4,00.5,00.3,0650.1,30.8
2021-03-31T03:13:00Z,00000200,01000000,0001.21,0000.40,0000.10,0000.03,0000.23,0000.22,0000.18,0000.33,-000.00,16.6,23.4,00.5,00.3,0650.1,30.9
2021-03-31T03:14:00Z,00000200,01000000,0001.95,0000.71,0000.47,-000.20,0000.15,0000.15,-000.02,0000.45,0000.41,16.6,23.4,00.5,00.3,0650.1,30.9
2021-03-31T03:15:00Z,00000200,01000000,0001.49,0000.62,0000.49,0000.23,0000.02,0000.14,0000.16,0000.32,0000.18,16.7,23.4,00.4,00.3,0650.1,30.9
2021-03-31T03:16:00Z,00000200,01000000,0001.17,0000.63,0000.46,0000.52,0000.12,0000.17,0000.03,-000.00,0000.04,16.6,23.4,00.5,00.3,0650.0,30.9
2021-03-31T03:17:00Z,00000200,01000000,0000.99,0000.81,0000.49,0000.21,0000.29,0000.19,0000.99,0000.90,0000.57,16.6,23.4,00.5,00.3,0650.1,30.9
2021-03-31T03:18:00Z,00000200,01000000,0001.61,0000.67,0000.38,0000.23,0000.08,0000.44,-000.21,-000.14,-000.02,16.6,23.4,00.6,00.4,0650.1,30.9
2021-03-31T03:19:00Z,00000200,01000000,0002.01,0000.67,0000.58,0000.60,0000.30,0000.28,0000.59,0000.18,0000.41,16.6,23.3,00.4,00.3,0650.0,30.9
2021-03-31T03:20:00Z,00000200,01000000,0001.82,0000.36,0000.23,0000.55,0000.09,0000.17,0000.31,0000.61,0000.04,16.5,23.3,00.5,00.3,0650.0,30.9
2021-03-31T03:21:00Z,00000200,01000000,0001.70,0000.57,0000.13,0000.15,0000.18,0000.24,0000.32,0000.38,0000.15,16.5,23.3,00.6,00.4,0650.0,30.9
2021-03-31T03:22:00Z,00000200,01000000,0001.55,0000.58,0000.38,0000.11,0000.10,0000.04,0000.40,-000.06,0000.44,16.5,23.3,00.6,00.4,0649.9,30.9
2021-03-31T03:23:00Z,00000200,01000000,0001.17,0000.43,0000.26,0000.18,0000.05,0000.43,0000.60,0000.35,0000.45,16.5,23.3,00.6,00.4,0650.0,30.9
2021-03-31T03:24:00Z,00000200,01000000,0001.73,0000.66,0000.51,0000.08,0000.29,-000.07,0000.09,0000.30,-000.04,16.4,23.3,00.6,00.4,0649.9,30.8
2021-03-31T03:25:00Z,00000200,01000000,0001.29,0000.87,0000.23,0000.18,-000.14,0000.16,0000.72,0000.36,0000.62,16.4,23.2,00.6,00.4,0649.8,30.8
2021-03-31T03:26:00Z,00000200,01000000,0000.92,0000.60,0000.28,0000.60,-000.18,0000.26,0000.27,0000.50,-000.00,16.4,23.2,00.6,00.4,0649.9,30.8
2021-03-31T03:27:00Z,00000200,01000000,0001.73,0000.71,0000.25,0000.64,0000.08,0000.28,0000.42,0000.22,0000.56,16.5,23.2,00.7,00.5,0649.9,30.8
2021-03-31T03:28:00Z,00000200,01000000,0002.09,0000.48,0000.32,0000.38,0000.13,0000.33,0000.29,0000.40,0000.54,16.5,23.2,00.7,00.4,0649.9,30.8
2021-03-31T03:29:00Z,00000200,01000000,0000.85,0000.77,0000.72,-000.12,0000.13,0000.35,0000.73,0000.38,0000.20,16.6,23.3,00.5,00.3,0649.9,30.8
2021-03-31T03:30:00Z,00000200,01000000,0000.93,0000.50,0000.36,0000.47,-000.07,0000.32,0000.17,0000.01,0000.27,16.6,23.3,00.6,00.4,0649.8,30.9
2021-03-31T03:31:00Z,00000200,01000000,0000.92,0000.81,0000.50,0000.07,0000.19,0000.43,0000.16,0000.23,-000.05,16.7,23.3,00.7,00.4,0649.8,30.9
2021-03-31T03:32:00Z,00000200,01000000,0001.13,0000.62,0000.32,0000.02,0000.18,0000.15,0000.12,0000.99,0000.33,16.7,23.3,00.6,00.4,0650.0,30.9
2021-03-31T03:33:00Z,00000200,01000000,0001.06,0000.45,0000.44,0000.29,0000.05,0000.27,0000.26,-000.12,-000.25,16.8,23.3,00.6,00.4,0649.9,30.9
2021-03-31T03:34:00Z,00000200,01000000,0001.57,0000.50,0000.41,0000.45,0000.05,0000.21,0000.56,0000.52,0000.87,16.8,23.3,00.6,00.4,0649.8,30.9
2021-03-31T03:35:00Z,00000200,01000000,0001.78,0000.63,0000.11,0000.56,-000.05,0000.15,0000.28,0000.26,0000.35,16.7,23.3,00.7,00.4,0649.8,30.9
2021-03-31T03:36:00Z,00000200,01000000,0001.03,0000.64,0000.28,0000.33,-000.02,0000.29,0000.37,0000.18,0000.31,16.7,23.3,00.6,00.4,0649.8,30.9
2021-03-31T03:37:00Z,00000200,01000000,0001.67,0000.72,0000.50,-000.35,0000.04,0000.32,0000.46,0000.38,0000.12,16.7,23.3,00.6,00.4,0649.7,30.9
2021-03-31T03:38:00Z,00000200,01000000,0001.33,0000.64,0000.37,-000.06,0000.05,0000.09,0000.14,0000.28,-000.28,16.6,23.3,00.7,00.4,0649.8,30.9
2021-03-31T03:39:00Z,00000200,01000000,0001.25,0000.64,0000.69,0000.60,0000.09,0000.16,0000.84,0000.75,0000.59,16.6,23.3,00.7,00.4,0649.8,30.9
2021-03-31T03:40:00Z,00000200,01000000,0001.38,0000.68,0000.11,0000.77,0000.03,0000.15,0000.03,-000.02,0000.22,16.6,23.3,00.7,00.5,0649.8,30.9
2021-03-31T03:41:00Z,00000200,01000000,0001.55,0000.56,0000.27,0000.13,-000.01,0000.13,0000.96,0000.71,0000.64,16.6,23.3,00.7,00.5,0649.8,30.9
2021-03-31T03:42:00Z,00000200,01000000,0001.19,0000.41,0000.60,0000.38,0000.12,0000.14,0000.51,0000.73,0000.62,16.6,23.2,00.9,00.6,0649.7,30.9
2021-03-31T03:43:00Z,00000200,01000000,0000.88,0000.62,0000.31,0000.64,-000.02,0000.29,0000.16,0000.42,0000.33,16.7,23.3,00.8,00.5,0649.7,30.9
2021-03-31T03:44:00Z,00000200,01000000,0001.69,0000.45,0000.45,0000.42,-000.09,0000.13,0000.96,0000.25,0000.37,16.7,23.3,00.9,00.6,0649.6,30.9
2021-03-31T03:45:00Z,00000200,01000000,0001.10,0000.48,0000.45,0000.54,0000.03,0000.36,0000.69,0000.93,0000.94,16.8,23.3,00.9,00.6,0649.8,30.9
2021-03-31T03:46:00Z,00000200,01000000,0001.33,0000.64,0000.46,0000.35,-000.09,-000.01,0000.52,0000.45,-000.12,16.8,23.3,00.9,00.6,0649.7,30.9
2021-03-31T03:47:00Z,00000200,01000000,0000.95,0000.24,0000.53,0000.55,0000.13,0000.28,-000.17,0000.14,0000.21,16.7,23.3,00.9,00.6,0649.6,30.9
2021-03-31T03:48:00Z,00000200,01000000,0001.27,0000.52,0000.24,0000.26,-000.02,-000.05,-000.07,-000.03,0000.07,16.7,23.3,00.8,00.5,0649.5,30.9
2021-03-31T03:49:00Z,00000200,01000000,0001.16,0000.26,0000.50,0000.64,0000.08,0000.08,0000.73,0000.60,0000.51,16.7,23.3,00.8,00.5,0649.5,30.9
2021-03-31T03:50:00Z,00000200,01000000,0001.86,0000.68,0000.11,0000.23,0000.16,-000.06,0000.08,-000.08,-000.03,16.6,23.2,00.8,00.5,0649.4,30.9
2021-03-31T03:51:00Z,00000200,01000000,0001.86,0000.63,0000.33,0000.38,0000.12,0000.17,0000.40,0000.63,0000.33,16.6,23.2,00.7,00.5,0649.5,30.9
2021-03-31T03:52:00Z,00000200,01000000,0001.50,0000.78,0000.16,0000.26,0000.05,0000.27,0000.45,-000.13,0000.10,16.5,23.2,00.7,00.5,0649.4,30.9
2021-03-31T03:53:00Z,00000200,01000000,0001.15,0000.48,0000.18,0000.35,0000.28,0000.36,0000.26,0000.40,0000.24,16.5,23.2,00.7,00.4,0649.3,30.8
2021-03-31T03:54:00Z,00000200,01000000,0001.29,0000.57,0000.24,0000.24,0000.15,0000.17,0000.30,0000.51,0000.25,16.5,23.2,00.8,00.5,0649.4,30.8
2021-03-31T03:55:00Z,00000200,01000000,0001.10,0000.71,0000.58,0000.42,0000.25,0000.05,0000.32,0000.34,0000.67,16.5,23.2,00.9,00.6,0649.5,30.8
2021-03-31T03:56:00Z,00000200,01000000,0001.51,0000.84,0000.28,0000.12,0000.18,0000.24,0000.63,0000.10,0000.31,16.5,23.1,00.8,00.5,0649.3,30.8
2021-03-31T03:57:00Z,00000200,41000000,,,,,,,0000.16,0000.21,0000.19,16.5,23.2,00.9,00.6,0649.3,30.8
2021-03-31T03:58:00Z,00000200,61000000,,,,,,,-000.17,-000.01,-000.29,16.3,23.3,00.7,00.4,0648.6,30.8
2021-03-31T03:59:00Z,00000200,21000000,,,,,,,0000.40,0000.44,0000.27,16.3,23.4,00.6,00.4,0648.5,30.8
